www.pogodaiklimat.ru
ПОГОДА в Паркаломполо
Время
(UTC), дата
13 15.10
14 15.10
15 15.10
16 15.10
17 15.10
18 15.10
19 15.10
20 15.10
21 15.10
22 15.10
23 15.10
00 16.10
01 16.10
02 16.10
03 16.10
04 16.10
05 16.10
06 16.10
07 16.10
08 16.10
09 16.10
10 16.10
11 16.10
12 16.10
13 16.10
14 16.10
15 16.10
16 16.10
17 16.10
18 16.10
19 16.10
20 16.10
21 16.10
22 16.10
23 16.10
00 17.10
01 17.10
02 17.10
03 17.10
04 17.10
05 17.10
06 17.10
07 17.10
08 17.10
09 17.10
10 17.10
12 17.10
13 17.10
14 17.10
15 17.10
16 17.10
17 17.10
18 17.10
19 17.10
20 17.10
21 17.10
22 17.10
23 17.10
00 18.10
01 18.10
02 18.10
03 18.10
04 18.10
05 18.10
06 18.10
09 18.10
10 18.10
11 18.10
12 18.10
13 18.10
14 18.10
15 18.10
16 18.10
17 18.10
18 18.10
19 18.10
20 18.10
21 18.10
22 18.10
23 18.10
00 19.10
01 19.10
02 19.10
03 19.10
04 19.10
05 19.10
06 19.10
07 19.10
08 19.10
09 19.10
10 19.10
11 19.10
12 19.10
13 19.10
14 19.10
15 19.10
16 19.10
17 19.10
18 19.10
19 19.10
20 19.10
21 19.10
22 19.10
23 19.10
00 20.10
01 20.10
02 20.10
03 20.10
04 20.10
05 20.10
06 20.10
07 20.10
08 20.10
09 20.10
10 20.10
11 20.10
12 20.10
13 20.10
14 20.10
15 20.10
16 20.10
17 20.10
18 20.10
19 20.10
20 20.10
21 20.10
22 20.10
23 20.10
00 21.10
01 21.10
02 21.10
03 21.10
04 21.10
05 21.10
06 21.10
07 21.10
08 21.10
09 21.10
10 21.10
11 21.10
12 21.10
13 21.10
14 21.10
15 21.10
16 21.10
17 21.10
18 21.10
19 21.10
20 21.10
21 21.10
22 21.10
23 21.10
00 22.10
01 22.10
02 22.10
03 22.10
04 22.10
05 22.10
06 22.10
07 22.10
08 22.10
09 22.10
10 22.10
11 22.10
12 22.10
Ветер
(напр.,м/с)
Видим. Явления Облачность Т
(С)
Тd
(С)
f
(%)
Тe
(С)
Тes
(С)
Комфортность P
(гПа)
Po
(гПа)
Тmin
(С)
Tmax
(С)
R
(мм)
R24
(мм)
S
(см)
Ю 1
{2}
50 км ясно -0.9 -5.7 70 -3 -2 прохладно 1017.6 978.7
Ю 1
{2}
50 км ясно -1.8 -5.9 74 -4 -4 прохладно 1017.7 978.7
ЮВ 1
{2}
50 км 6/0
[]
-2.8 -5.8 80 -5 -5 холодно 1017.7 978.7
ЮВ 1
{1}
50 км 10/10 2000 м
[]
-3.0 -5.8 81 -5 -5 холодно 1017.8 978.8
штиль 0
{1}
50 км 10/10 1500 м
[]
-3.2 -5.8 82 -4 -4 прохладно 1017.7 978.7
штиль 0
{1}
50 км 10/10 1080 м
[]
-3.1 -7.5 72 -4 -4 прохладно 1018.0 978.9 -10.0 -0.8
ЮВ 1
{2}
50 км в посл. час снег {ливн. осадки} ?/? -3.2 -6.7 77 -5 -5 холодно 1018.0 978.9 0.1
штиль 0
{2}
50 км {ливн. осадки, снег} 10/4 120 м
[]
-3.9 -7.4 77 -5 -5 холодно 1018.3 979.2
штиль 0
{1}
50 км {ливн. осадки, снег} 10/10 120 м
[]
-4.5 -7.4 80 -5 -5 холодно 1018.5 979.3
штиль 0
{1}
9000 м {ливн. осадки, снег} ?/? -4.5 -7.2 81 -5 -5 холодно 1018.6 979.4
СЗ 1
{2}
н/о {ливн. осадки, снег} ?/? -4.4 -6.1 88 -7 -7 холодно 1018.7 979.5
штиль 0
{1}
н/о в посл. час зёрна {ливн. осадки} ?/? -5.7 -8.1 83 -7 -7 холодно 1019.0 979.7
штиль 0
{1}
н/о ?/? -6.7 -8.8 85 -8 -8 очень
холодно
1019.0 979.6
штиль 0
{1}
н/о ?/? -7.6 -9.7 85 -8 -8 очень
холодно
1019.3 979.8
штиль 0
{1}
2800 м дымка ?/? -8.5 -10.9 83 -9 -9 очень
холодно
1019.4 979.8
штиль 0
{1}
н/о ?/? -8.8 -11.1 83 -9 -9 очень
холодно
1019.5 979.9
СЗ 1
{1}
12 км ?/? -8.6 -10.6 85 -11 -11 очень
холодно
1019.6 980.0
штиль 0
{1}
40 км {дымка} ?/? -7.8 -10.5 81 -8 -8 очень
холодно
1019.7 980.2 -9.1 -3.0
штиль 0
{1}
12 км ?/? -6.9 -9.9 79 -8 -8 очень
холодно
1019.8 980.4
штиль 0
{1}
800 м слаб. снег {дымка} ?/? -5.9 -7.9 86 -7 -7 холодно 1020.1 980.7 0.1
штиль 0
{1}
14 км в посл. час снег {ливн. осадки} ?/? -4.8 -7.5 81 -6 -6 холодно 1020.1 980.8
ЮВ 1
{1}
н/о дымка {ливн. осадки, снег} ?/? -4.5 -6.7 85 -7 -7 холодно 1020.1 980.8
штиль 0
{1}
30 км {ливн. осадки, снег} ?/? -4.3 -6.4 85 -5 -5 холодно 1020.0 980.8
СВ 1
{2}
19 км {ливн. осадки, снег} ?/? -4.5 -6.6 85 -7 -7 холодно 1020.1 980.9
штиль 0
{2}
3300 м дымка ?/? -4.5 -6.4 87 -6 -6 холодно 1019.9 980.7
ЮЗ 1
{2}
2500 м дымка ?/? -4.5 -6.3 87 -7 -7 холодно 1019.8 980.5
штиль 0
{1}
1200 м {дымка} ?/? -4.8 -7.0 85 -6 -6 холодно 1019.7 980.5
СВ 1
{2}
1000 м ?/? -5.1 -7.2 85 -7 -7 холодно 1019.9 980.6
штиль 0
{2}
н/о ?/? -5.5 -7.6 85 -6 -6 холодно 1020.0 980.7
ЮВ 1
{2}
н/о {дымка} ?/? -6.0 -8.2 84 -8 -8 очень
холодно
1020.1 980.8 -7.8 -4.3
штиль 0
{2}
н/о ?/? -6.0 -8.1 85 -7 -7 холодно 1020.2 980.9
штиль 0
{1}
н/о ?/? -6.2 -8.5 84 -7 -7 холодно 1020.3 980.9
штиль 0
{1}
н/о ?/? -6.2 -8.4 84 -7 -7 холодно 1020.4 981.0
штиль 0
{1}
н/о ?/? -6.6 -8.7 85 -7 -7 холодно 1020.4 981.0
штиль 0
{1}
н/о ?/? -7.1 -9.0 86 -8 -8 очень
холодно
1020.5 981.0
В 1
{1}
н/о ?/? -7.8 -10.2 83 -10 -10 очень
холодно
1020.2 980.6
штиль 0
{1}
1000 м ?/? -7.8 -10.4 82 -8 -8 очень
холодно
1020.2 980.6
штиль 0
{1}
н/о ?/? -7.9 -10.2 84 -9 -9 очень
холодно
1020.0 980.5
штиль 0
{1}
н/о {дымка} ?/? -7.8 -10.5 81 -8 -8 очень
холодно
1019.6 980.1
штиль 0
{1}
1700 м дымка ?/? -9.0 -11.4 83 -10 -10 очень
холодно
1020.0 980.4
штиль 0
{1}
н/о ?/? -9.2 -12.1 79 -10 -10 очень
холодно
1020.2 980.5
штиль 0
{1}
1000 м дымка ?/? -8.2 -10.8 81 -9 -9 очень
холодно
1019.7 980.1 -9.5 -5.9
ЮВ 1
{2}
1200 м дымка ?/? -7.5 -9.8 84 -10 -10 очень
холодно
1019.7 980.2
штиль 0
{2}
2200 м дымка ?/? -6.9 -8.9 86 -8 -8 очень
холодно
1019.5 980.1
Ю 2
{3}
4200 м дымка ?/? -7.1 -8.8 88 -12 -12 очень
холодно
1019.3 979.8
Ю 1
{3}
3200 м дымка ?/? -6.3 -8.1 87 -9 -9 очень
холодно
1019.1 979.8
Ю 1
{3}
н/о дымка ?/? -5.4 -7.2 87 -8 -8 очень
холодно
1018.2 978.9
ЮВ 1
{2}
3500 м дымка ?/? -4.9 -7.1 85 -7 -7 холодно 1017.4 978.2
Ю 1
{3}
20 км ?/? -4.4 -6.4 86 -7 -7 холодно 1017.0 977.9
Ю 1
{3}
14 км {дымка} ?/? -4.3 -6.2 87 -7 -7 холодно 1016.6 977.5
Ю 1
{3}
30 км ?/? -4.3 -6.1 87 -7 -7 холодно 1016.1 977.0
Ю 1
{2}
50 км 10/9 60 м
[]
-4.2 -6.3 85 -7 -7 холодно 1015.7 976.7
Ю 1
{2}
50 км {дымка} 10/10 60 м
[]
-3.9 -5.9 86 -6 -6 холодно 1015.4 976.3 -3.9
Ю 1
{3}
50 км ?/? -3.3 -5.1 87 -6 -6 холодно 1014.8 975.8
Ю 1
{3}
50 км ?/? -3.1 -4.9 87 -5 -5 холодно 1014.5 975.5
Ю 1
{3}
50 км ?/? -3.0 -4.7 88 -5 -5 холодно 1013.8 974.9
Ю 2
{3}
50 км 10/10 90 м
[]
-2.8 -4.4 89 -7 -7 холодно 1013.2 974.3
Ю 1
{3}
50 км 10/10 90 м
[]
-2.7 -4.4 88 -5 -5 холодно 1012.6 973.8
Ю 1
{3}
1500 м слаб. снег ?/? -2.6 -4.5 87 -5 -5 холодно 1011.7 972.9 0.4
Ю 2
{3}
2100 м слаб. снег ?/? -2.6 -4.4 87 -7 -7 холодно 1011.1 972.4 0.3
Ю 2
{4}
2800 м слаб. снег ?/? -2.5 -4.5 86 -7 -7 холодно 1010.4 971.7 0.1
Ю 2
{4}
2900 м слаб. снег ?/? -2.2 -3.8 89 -6 -6 холодно 1009.6 970.9 0.3
Ю 2
{5}
1900 м слаб. снег ?/? -2.0 -3.6 89 -6 -6 холодно 1009.2 970.6 0.3
Ю 2
{5}
1300 м слаб. снег ?/? -2.0 -3.4 90 -6 -6 холодно 1008.7 970.0 0.7
Ю 2
{5}
1500 м слаб. снег ?/? -1.7 -3.3 89 -6 -6 холодно 1008.5 969.8 -3.9 -1.7 0.4
Ю 2
{4}
1400 м слаб. снег ?/? -0.8 -2.1 91 -5 -5 холодно 1008.3 969.7 0.5
Ю 2
{3}
1500 м слаб. снег ?/? -0.5 -1.0 96 -4 -4 прохладно 1007.9 969.4 0.8
Ю 2
{3}
7000 м слаб. снег ?/? -0.2 -0.7 96 -4 -4 прохладно 1007.8 969.3 0.2
Ю 1
{3}
2200 м слаб. снег {метель} ?/? -0.2 -0.6 97 -2 -2 по сезону 1007.7 969.2 0.2
Ю 1
{3}
1900 м слаб. снег ?/? -0.1 -0.5 97 -2 -2 по сезону 1007.4 968.9 0.3
Ю 1
{3}
1900 м слаб. снег ?/? -0.2 -0.6 97 -2 -2 по сезону 1007.3 968.9 0.3
штиль 0
{1}
2400 м слаб. снег ?/? -0.4 -0.7 98 -2 -2 по сезону 1007.2 968.7 0.6
штиль 0
{1}
2500 м слаб. снег ?/? -0.5 -0.8 98 -2 -2 по сезону 1007.1 968.6 0.3
штиль 0
{1}
2500 м слаб. снег ?/? -0.5 -0.9 97 -2 -2 по сезону 1007.2 968.7 0.3
штиль 0 3000 м слаб. снег ?/? -0.8 -1.2 97 -2 -2 по сезону 1007.3 968.8 -0.1 0.2
штиль 0 1900 м слаб. снег ?/? -0.9 -1.3 97 -2 -2 по сезону 1007.0 968.5 0.3
штиль 0
{1}
2000 м слаб. снег ?/? -1.0 -1.3 98 -2 -2 по сезону 1007.1 968.6 0.3
штиль 0
{1}
2200 м слаб. снег ?/? -1.0 -1.4 97 -2 -2 по сезону 1007.2 968.7 0.4
С 1
{1}
2300 м слаб. снег ?/? -1.0 -1.3 98 -3 -3 прохладно 1007.3 968.8 0.4
С 1
{2}
1700 м слаб. снег ?/? -1.1 -1.5 97 -3 -3 прохладно 1007.2 968.7 0.4

{2}
2000 м слаб. снег ?/? -1.5 -1.8 98 1007.3 968.8 0.3
С 1
{2}
4200 м слаб. снег ?/? -1.9 -2.3 97 -4 -4 прохладно 1007.5 968.9 0.4
С 1
{2}
2600 м слаб. снег ?/? -2.1 -2.7 96 -4 -4 прохладно 1007.9 969.2 0.1
С 1
{2}
14 км в посл. час снег ?/? -2.5 -3.1 96 -5 -5 холодно 1008.2 969.6 0.1
С 2
{3}
29 км {снег, метель} 10/5 210 м
[]
-2.7 -3.3 96 -7 -7 холодно 1008.8 970.1
С 1
{3}
29 км {снег, метель} 10/6 800 м
[]
-2.8 -3.4 96 -5 -5 холодно 1009.4 970.7
С 1
{3}
30 км {снег, метель} 10/10 1500 м
[]
-2.8 -3.4 96 -5 -5 холодно 1009.8 971.1 -2.8 -0.8
С 2
{4}
26 км 10/8 1500 м
[]
-2.6 -3.3 95 -7 -7 холодно 1010.3 971.5

{3}
30 км 10/1 360 м
[]
-3.3 -4.2 93 1010.7 971.9

{3}
30 км ясно -3.9 -4.9 93 1011.4 972.5
С 1
{3}
26 км ясно -3.4 -4.5 92 -6 -5 холодно 1011.7 972.9
С 2
{3}
30 км ясно -3.4 -4.6 91 -8 -7 очень
холодно
1012.3 973.4
С 2
{4}
35 км 1/0
[]
-3.4 -4.8 90 -8 -7 очень
холодно
1012.6 973.7
С 2
{4}
29 км ясно -3.7 -5.3 89 -8 -8 очень
холодно
1013.1 974.2

{5}
50 км ясно -4.4 -6.7 84 1013.5 974.5
С 2
{3}
50 км ясно -5.4 -7.8 83 -10 -10 очень
холодно
1013.9 974.9
С 2
{4}
40 км ясно -5.7 -8.1 83 -10 -10 очень
холодно
1014.6 975.4

{5}
50 км ясно -5.8 -8.2 83 1015.0 975.9

{4}
50 км ясно -6.2 -8.5 84 1015.4 976.2 -6.3 -2.5
С 2
{4}
50 км ясно -7.1 -9.5 83 -11 -11 очень
холодно
1016.1 976.7
С 2
{4}
50 км ясно -7.0 -9.5 82 -11 -11 очень
холодно
1016.6 977.3
С 2
{5}
50 км ясно -8.0 -10.5 82 -12 -12 очень
холодно
1017.5 978.0
С 1
{2}
19 км ясно -10.9 -13.5 81 -13 -13 очень
холодно
1018.1 978.4
штиль 0
{2}
14 км ясно -14.3 -18.0 73 -14 -14 очень
холодно
1019.0 979.0
штиль 0
{2}
30 км ясно -15.9 -19.4 74 -16 -16 очень
холодно
1019.7 979.6
штиль 0
{1}
50 км ясно -16.7 -19.9 76 -17 -17 очень
холодно
1020.3 980.1
штиль 0 50 км ясно -17.2 -19.3 84 -17 -17 очень
холодно
1020.8 980.5
штиль 0 50 км ясно -16.9 -18.1 90 -17 -17 очень
холодно
1021.1 980.9
штиль 0 50 км ясно -18.5 -20.6 83 -19 -19 очень
холодно
1021.5 981.1
С 1
{2}
50 км ясно -18.2 -20.5 82 -21 -21 очень
холодно
1021.3 980.9
штиль 0
{1}
50 км ясно -16.3 -17.6 90 -16 -16 очень
холодно
1021.2 981.0 -19.4 -6.1
штиль 0
{1}
40 км ясно -17.2 -19.0 86 -17 -17 очень
холодно
1021.4 981.1
штиль 0 40 км в посл. час снег {ливн. осадки, метель} ясно -16.0 -18.4 82 -16 -16 очень
холодно
1021.6 981.4 0.1
штиль 0
{1}
35 км {ливн. осадки, метель} ясно -13.3 -15.7 82 -13 -13 очень
холодно
1021.5 981.5
штиль 0
{1}
40 км {ливн. осадки, метель} ясно -9.0 -11.1 85 -10 -9 очень
холодно
1021.0 981.3
ЮВ 1
{1}
45 км {ливн. осадки, метель} ясно -8.1 -10.6 82 -10 -10 очень
холодно
1020.6 981.0
Ю 1
{2}
45 км {ливн. осадки, метель} ясно -7.4 -9.3 86 -10 -9 очень
холодно
1020.1 980.5
Ю 1
{2}
50 км ясно -6.8 -8.5 88 -9 -9 очень
холодно
1019.2 979.8
Ю 1
{2}
50 км ясно -9.1 -10.4 90 -11 -11 очень
холодно
1019.0 979.4
Ю 1
{2}
50 км ясно -10.3 -11.4 92 -13 -13 очень
холодно
1018.6 978.9
Ю 2
{2}
45 км ясно -10.4 -11.7 90 -15 -15 очень
холодно
1017.8 978.2
Ю 1
{2}
40 км ясно -10.2 -11.4 91 -13 -13 очень
холодно
1017.4 977.7
Ю 1
{3}
45 км ясно -9.4 -10.5 92 -12 -12 очень
холодно
1016.8 977.3 -19.1 -6.7
Ю 1
{3}
50 км ясно -8.9 -10.0 92 -11 -11 очень
холодно
1016.2 976.8
Ю 2
{3}
50 км ясно -9.0 -10.2 91 -14 -14 очень
холодно
1015.5 976.1
штиль 0
{2}
45 км ясно -10.1 -11.4 90 -10 -10 очень
холодно
1015.2 975.7
Ю 1
{2}
50 км ясно -10.0 -11.3 90 -12 -12 очень
холодно
1014.5 975.0
Ю 1
{2}
50 км ясно -10.6 -12.0 89 -13 -13 очень
холодно
1014.3 974.7
Ю 1
{2}
50 км ясно -10.0 -11.4 89 -12 -12 очень
холодно
1013.7 974.2
Ю 1
{2}
50 км ясно -11.4 -12.8 89 -14 -14 очень
холодно
1013.2 973.7
Ю 1
{1}
50 км 1/1
[]
-12.8 -15.6 79 -15 -15 очень
холодно
1013.1 973.4
Ю 1
{1}
50 км 8/8 30 м
[]
-12.7 -15.5 80 -15 -15 очень
холодно
1012.7 973.1
ЮЗ 1
{2}
27 км ?/? -12.7 -15.1 82 -15 -15 очень
холодно
1012.6 972.9
ЮЗ 1
{2}
18 км н/о -13.8 -17.0 77 -16 -16 очень
холодно
1012.6 972.9
штиль 0
{1}
27 км в посл. час снег {ливн. осадки, дымка} ?/? -14.6 -17.1 81 -15 -15 очень
холодно
1012.6 972.8 -15.6 -8.7 0.0
штиль 0
{1}
23 км ясно -14.9 -18.6 73 -15 -15 очень
холодно
1012.7 972.9
штиль 0
{1}
5000 м слаб. ливневой снег ясно -14.3 -18.2 72 -14 -14 очень
холодно
1012.8 973.0 0.0
штиль 0
{1}
17 км в посл. час снег {ливн. осадки, метель} 6/0
[]
-13.0 -16.7 74 -13 -13 очень
холодно
1012.6 973.0
штиль 0
{1}
50 км {ливн. осадки, метель} 9/9
[]
-10.6 -14.4 74 -11 -11 очень
холодно
1012.7 973.2
штиль 0
{1}
50 км {ливн. осадки, метель} 4/1
[]
-9.6 -11.3 87 -10 -9 очень
холодно
1012.3 972.9
штиль 0
{1}
50 км {ливн. осадки, метель} 4/0
[]
-9.6 -11.3 87 -10 -10 очень
холодно
1012.3 972.9
Ю 1
{1}
50 км ясно -8.8 -10.4 88 -11 -11 очень
холодно
1012.1 972.7
штиль 0
{1}
50 км ясно -10.5 -12.2 87 -11 -11 очень
холодно
1012.0 972.6
штиль 0
{1}
50 км ясно -11.6 -13.4 86 -12 -12 очень
холодно
1011.4 971.9
штиль 0
{1}
13 км 5/5 90 м
[]
-12.4 -16.5 71 -12 -12 очень
холодно
1011.3 971.8
штиль 0
{1}
35 км 10/10 90 м
[]
-11.7 -15.6 73 -12 -12 очень
холодно
1010.6 971.1
штиль 0
{1}
50 км 1/0
[]
-10.7 -14.7 72 -11 -11 очень
холодно
1009.9 970.6 -16.3 -8.8
штиль 0
{1}
50 км ясно -9.0 -11.9 79 -9 -9 очень
холодно
1009.2 970.0
штиль 0 18 км дым ясно -10.1 -13.8 74 -10 -10 очень
холодно
1008.3 969.1
штиль 0 30 км ясно -10.2 -13.7 75 -10 -10 очень
холодно
1007.8 968.5
штиль 0
{1}
50 км ясно -8.3 -11.3 79 -9 -9 очень
холодно
1007.0 967.9
штиль 0
{1}
50 км 8/1 1500 м
[]
-7.6 -9.3 88 -8 -8 очень
холодно
1006.3 967.3
штиль 0
{1}
19 км 5/5 1140 м
[]
-6.7 -7.7 93 -8 -8 очень
холодно
1004.8 965.9
штиль 0
{1}
45 км 10/4 1170 м
[]
-6.3 -7.2 93 -7 -7 холодно 1004.0 965.2
ЮВ 1
{1}
50 км 3/1 1500 м
[]
-5.6 -6.5 93 -8 -8 очень
холодно
1002.3 963.6
штиль 0
{1}
50 км 4/4 150 м
[]
-6.0 -7.1 92 -7 -7 холодно 1001.4 962.8
штиль 0
{1}
50 км ясно -6.4 -7.3 93 -7 -7 холодно 999.7 961.1
ЮВ 1
{2}
50 км 10/10 90 м
[]
-6.1 -7.0 93 -9 -9 очень
холодно
998.2 959.6
ЮВ 1
{2}
50 км 10/10 120 м
[]
-5.2 -6.0 94 -8 -8 очень
холодно
996.6 958.2 -10.7 -5.2
ЮВ 2
{4}
6000 м слаб. ливневой снег ?/? -4.1 -4.8 95 -8 -8 очень
холодно
994.8 956.5 0.0
ЮВ 2
{4}
26 км в посл. час снег {ливн. осадки} ?/? -3.2 -3.7 96 -7 -7 холодно 993.1 955.0 0.0
ЮВ 3
{5}
8000 м {ливн. осадки, снег} ?/? -2.0 -2.5 96 -7 -7 холодно 991.1 953.1
ЮВ 2
{6}
2300 м {ливн. осадки, снег} ?/? -1.5 -1.9 97 -6 -6 холодно 989.7 951.8
ЮВ 3
{6}
800 м снег {ливн. осадки} ?/? -1.2 -1.6 97 -6 -6 холодно 987.2 949.4 0.6
Ю 2
{5}
600 м сильн. снег {ливн. осадки} ?/? -0.7 -1.0 98 -5 -5 холодно 985.7 948.1 3
Местоположение метеостанции Паркаломполо (Швеция): широта 67.73 долгота 22.83 высота над уровнем моря 313 м.
В архиве по умолчанию представлена погода в Паркаломполо за последнюю неделю. Архивные данные за месяц целиком и за предыдущие месяцы, начиная с января 2011 года, Вы можете получить, выбрав интересующий диапазон дат из раскрывающегося списка и нажав кнопку "Найти!".
*Определитесь, кто Вы:
Внимание! Время в таблицах - всемирное. Для получения местного времени необходимо прибавить поправку, которая равна 1 ч.
Смотрите также архив погоды в соседних городах и на ближайших метеорологических станциях:
Партнеры нашего сайта:      
Пояснения к столбцам:
  • Ветер - указаны скорость ветра в м/с - средняя за 10 мин, порывы в срок и между сроками (в фигурных скобках) и направление, откуда дует ветер: С - северный,
  • СВ - северо-восточный, В - восточный, ЮВ - юго-восточный, Ю - южный, ЮЗ - юго-западный, З - западный, СЗ - северо-западный.
  • Видимость - горизонтальная дальность видимости в метрах или километрах. При видимости от 1 до 10 км при отсутствии осадков обычно наблюдается дымка, при ухудшении видимости до 1 км и менее - туман. В сухую погоду видимость может ухудшаться дымом, пылью или мглою.
  • Явления - указаны атмосферные явления, наблюдавшиеся в срок или в последний час перед сроком; фигурными скобками обозначены явления, наблюдавшиеся между сроками (за 1-3 часа до срока); квадратными скобками обозначены град или гололедные отложения с указанием их диаметра в мм.
  • Облачность - указаны через наклонную черту общая и нижняя облачность в баллах и высота нижней границы облаков в метрах; квадратными скобками обозначены формы облаков: Ci - перистые, Cs - перисто-слоистые, Cc - перисто-кучевые, Ac - высококучевые, As - высокослоистые, Sc - слоисто-кучевые, Ns - слоисто-дождевые, Cu - кучевые, Cb - кучево-дождевые. Подробнее классификацию облаков см. в Атласе облаков (PDF).
  • T - Температура воздуха - температура, измеренная на высоте 2 м над землей.
  • Td - Температура точки росы - температура, при понижении до которой содержащийся в воздухе водяной пар достигнет насыщения.
  • f - Относительная влажность воздуха - влажноcть воздуха, измеренная на высоте 2 м над землей.
  • Te - Эффективная температура - температура, которую ощущает одетый по сезону человек в тени. Характеристика душности погоды. При расчете учитывается влияние влажности воздуха и скорости ветра на теплоощущения человека.
  • Tes - Эффективная температура на солнце - температура, которую ощущает человек, с поправкой на солнечный нагрев. Характеристика знойности погоды. Зависит от высоты солнца над горизонтом, облачности и скорости ветра. Ночью, в пасмурную погоду, а также при ветре 12 м/с и более поправка равна нулю.
  • P - Атмосферное давление - приведенное к уровню моря атмосферное давление.
  • Po - Атмосферное давление - измеренное на уровне метеостанции атмосферное давление.
  • Tmin - Минимальная температура - минимум температуры воздуха на высоте 2 м над землей.
  • Tmax - Максимальная температура - максимум температуры воздуха на высоте 2 м над землей.
  • R - Количество осадков - Количество выпавших осадков за период времени, мм. При наведении курсора мыши на число - период времени, за который выпало указанное количество осадков.
  • R24 - Количество осадков - Количество выпавших осадков за 24 часа, мм.
  • S - Снежный покров - Высота снежного покрова, см. При наведении курсора мыши на число - состояние снежного покрова и степень покрытия местности в баллах.